Current weather by "City, St" or "zip code"  
 
Advertise Here

Current Conditions: Hinckley Field of Dreams Airport, MN

Light Snow


21.0 F

Last Updated on Jan 17 2021, 8:55 pm CST
Humidity: 86%
Wind Speed: N 0.0 mph
Barometer 29.78 in
Dewpoint: 17.6 F
Visibility: 10.00 mi
Precip: --
Heat Index: NA
Wind Chill: NA
Current conditions at:

Hinckley Field of Dreams Airport, MN (K04W)

Lat: 46.02437 Lon: 92.89905

Local Radar Image active severe weather and emergency alerts image image weather storm and storm spotter reports image weather observation monitoring service image
Local
Radar
Active
Alerts
Storm Reports Obs
Monitoring

Sign-up For Email & Text Message Weather Alert Notification Services


Advertise Here

Observation History for Hinckley Field of Dreams Airport, MN


Time Wind
(mph)
Vis
(mi)
Weather Precip (in) Temperature (F) Relative
Humidity
Wind
Chill
(F)
Heat
Index
(F)
Pressure
Air Dwpt altimeter
(in)
sea level
(mb)
Rmks
8:55 pm CST N 0.0 10.00 Light Snow -- 21.0 17.6 86% NA NA 29.78 M
7:55 pm CST NW 3.5 10.00 Overcast -- 21.0 19.4 93% NA NA 29.78 M
6:55 pm CST W 4.6 10.00 Overcast -- 21.0 19.4 93% 15 NA 29.78 M
5:55 pm CST NW 5.8 10.00 Overcast -- 23.0 19.4 86% 16 NA 29.79 M
4:55 pm CST NW 4.6 10.00 Overcast -- 23.0 19.4 86% 17 NA 29.79 M
3:55 pm CST W 6.9 10.00 Overcast -- 25.0 19.4 80% 17 NA 29.77 M
2:55 pm CST N 0.0 10.00 Overcast -- 25.0 19.4 80% NA NA 29.76 M
1:55 pm CST N 3.5 10.00 Overcast -- 27.0 19.4 74% NA NA 29.75 M
12:55 pm CST N 0.0 10.00 Overcast -- 27.0 19.4 74% NA NA 29.76 M
12:35 pm CST N 3.5 10.00 Overcast -- 27.0 21.2 80% NA NA 29.77 M
11:55 am CST N 0.0 10.00 Overcast -- 27.0 21.2 80% NA NA 29.78 M
10:55 am CST N 0.0 10.00 Overcast -- 21.0 21.2 100% NA NA 29.79 M
9:55 am CST N 3.5 10.00 Overcast -- 21.0 19.4 93% NA NA 29.80 M
8:55 am CST N 5.8 10.00 Overcast -- 19.0 19.4 100% 11 NA 29.79 M
7:55 am CST N 0.0 10.00 Overcast -- 19.0 19.4 100% NA NA 29.78 M
6:55 am CST N 0.0 10.00 Overcast -- 19.0 19.4 100% NA NA 29.78 M
5:55 am CST NW 4.6 10.00 Overcast -- 19.0 19.4 100% 12 NA 29.76 M
4:55 am CST NW 5.8 10.00 Overcast -- 21.0 19.4 93% 13 NA 29.76 M
4:35 am CST NW 4.6 10.00 Overcast -- 21.0 19.4 93% 15 NA 29.75 M
3:55 am CST N 3.5 10.00 Overcast -- 21.0 19.4 93% NA NA 29.76 M
2:55 am CST NW 5.8 10.00 Overcast -- 21.0 21.2 100% 13 NA 29.76 M
1:55 am CST NW 4.6 10.00 Overcast -- 23.0 21.2 93% 17 NA 29.76 M
1:35 am CST NW 3.5 10.00 Overcast -- 23.0 21.2 93% NA NA 29.76 M
12:55 am CST NW 5.8 10.00 Overcast -- 23.0 21.2 93% 16 NA 29.75 M

Regional Weather Observation


Moose Lake Carlton County Airport, MN (KMZH)

Overcast
19.0 F

Mc Gregor - Isedor Iverson Airport, MN (KHZX)

Overcast
19.0 F

Aitkin Municipal Airport - Steve Kurtz Field, MN (KAIT)

Overcast
19.0 F

Mora Municipal Airport, MN (KJMR)

Light Snow
18.0 F

Cloquet Carlton County Airport, MN (KCOQ)

Light Snow
18.0 F

Rush City Regional Airport, MN (KROS)

Light Snow
19.0 F